Location: *
(49.3500°N, 12.6000°E)
Time: 23:42:45
(UTC+00:00)

STARLINK-25 - Pass Details

Date: 18 October 2019
Orbit: 548 x 552 km, 53.0° (Epoch: 12 November)

Event Time Altitude Azimuth Distance (km) Brightness Sun altitude
Rises 18:02:16 0° 270° (W) 2,715 8.8 -18.3°
Reaches altitude 10° 18:04:33 10° 276° (W) 1,823 7.5 -18.7°
Maximum altitude 18:08:36 52° 353° (N) 689 4.1 -19.3°
Enters shadow 18:09:48 38° 45° (NE) 852 4.2 -19.5°
